Home > Weather > Yuzhno-Sakhalinsk > Past weeks

Flag for Russia Past Weather in Yuzhno-Sakhalinsk, Russia — Yesterday and Last 2 Weeks

Now
45 °F

Partly sunny.


Feels Like: 39 °F
Forecast: 42 / 46 °F
Wind: 10 mph from North

Location: Yuzhno Airport-Sakhalinsk

Current Time: Jun 1, 2016 at 10:48:59 AM

Latest Report: Jun 1, 2016 at 10:00 AM


Visibility: N/A

Pressure: 29.68 "Hg

Humidity: 93%

Dew Point: 43 °F

Location of Yuzhno-SakhalinskLocation

Past Weather in Yuzhno-Sakhalinsk — Graph

°F

Yuzhno-Sakhalinsk Temperature Yesterday

Maximum temperature yesterday: 59 °F (at 12:30 PM)
Minimum temperature yesterday: 41 °F (at 4:00 AM)
Average temperature yesterday: 47 °F

High & Low Weather Summary for the Past Weeks

 TemperatureHumidityPressure
High84 °F (May 20, 2:30 PM)100% (May 18, 5:00 AM)30.09 "Hg (May 18, 5:00 AM)
Low30 °F (May 24, 4:00 AM)15% (May 21, 4:00 PM)29.45 "Hg (May 27, 3:00 PM)
Average54 °F69%29.82 "Hg
* Reported May 17 9:00 AM — Jun 1 9:30 AM, Yuzhno-Sakhalinsk, Weather by CustomWeather, © 2016

Note: Actual official high and low records may vary slightly from our data, if they occured in-between our weather recording intervals... More about our weather records

Advertising

Yuzhno-Sakhalinsk Weather History for the Previous 24 Hours

Scroll right to see more
 ConditionsComfort  
Time TempWeatherWind HumidityBarometerVisibility
9:30 AM
Wed, Jun 1
43 °FPartly sunny.10 mph93%29.68 "HgN/A
9:00 AM43 °FPartly sunny.10 mph93%29.68 "HgN/A
8:30 AM43 °FPartly sunny.13 mph93%29.68 "HgN/A
8:00 AM41 °FSprinkles. Partly sunny.15 mph100%29.68 "HgN/A
7:30 AM41 °FSprinkles. Partly sunny.10 mph100%29.68 "HgN/A
7:00 AM41 °FSprinkles. Partly sunny.15 mph93%29.68 "HgN/A
6:30 AM41 °FSprinkles. Partly sunny.15 mph93%29.68 "HgN/A
6:00 AM41 °FSprinkles. Partly sunny.10 mph100%29.65 "HgN/A
5:00 AM41 °FSprinkles. Passing clouds.15 mph100%29.65 "HgN/A
4:00 AM41 °FSprinkles. Passing clouds.15 mph100%29.65 "HgN/A
3:00 AM41 °FPassing clouds.15 mph93%29.65 "HgN/A
2:00 AM41 °FPartly cloudy.20 mph93%29.65 "HgN/A
1:00 AM41 °FPartly cloudy.20 mph93%29.68 "HgN/A
12:00 AM41 °FPartly cloudy.15 mph93%29.68 "HgN/A
11:00 PM
Tue, May 31
41 °FPartly cloudy.15 mph93%29.71 "HgN/A
10:30 PM41 °FPartly cloudy.17 mph93%29.71 "HgN/A
10:00 PM41 °FPartly cloudy.17 mph93%29.71 "HgN/A
9:30 PM41 °FPassing clouds.15 mph93%29.68 "HgN/A
9:00 PM41 °FBroken clouds.15 mph100%29.71 "HgN/A
8:30 PM43 °FSprinkles. Broken clouds.15 mph93%29.71 "HgN/A
8:00 PM43 °FSprinkles. Broken clouds.17 mph93%29.71 "HgN/A
7:30 PM43 °FSprinkles. Broken clouds.15 mph93%29.71 "HgN/A
7:00 PM45 °FScattered clouds.15 mph87%29.71 "HgN/A
6:30 PM45 °FPassing clouds.15 mph87%29.68 "HgN/A
6:00 PM46 °FClear.15 mph82%29.68 "HgN/A
5:30 PM46 °FClear.13 mph82%29.68 "HgN/A
5:00 PM48 °FClear.10 mph76%29.71 "HgN/A
4:30 PM50 °FClear.13 mph76%29.68 "HgN/A
4:00 PM52 °FClear.13 mph72%29.68 "HgN/A
3:30 PM54 °FPassing clouds.10 mph67%29.68 "HgN/A
3:00 PM55 °FPassing clouds.17 mph67%29.68 "HgN/A
2:30 PM55 °FPassing clouds.15 mph67%29.68 "HgN/A
2:00 PM57 °FPassing clouds.15 mph63%29.68 "HgN/A
1:30 PM59 °FPassing clouds.10 mph59%29.68 "HgN/A
1:00 PM57 °FPassing clouds.8 mph63%29.71 "HgN/A
12:30 PM59 °FPassing clouds.6 mph63%29.71 "HgN/A
12:00 PM55 °FPassing clouds.6 mph67%29.71 "HgN/A
11:30 AM55 °FPassing clouds.3 mph67%29.71 "HgN/A
11:00 AM54 °FPassing clouds.3 mph72%29.71 "HgN/A
10:30 AM52 °FPassing clouds.1 mph77%29.71 "HgN/A
10:00 AM50 °FPassing clouds.6 mph76%29.74 "HgN/A
Weather by CustomWeather, © 2016

See weather overviewHow to use our weather pages